Hourly Weather Rudy

Today, 20 April, Tuesday

Time Temperature Precipitation Wind Pressure Humidity
00:00 +10°C° 0 mm 1 mps 758 mmHg 80%
01:00 +10°C° 0 mm 1 mps 757 mmHg 82%
02:00 +10°C° 0 mm 1 mps 757 mmHg 82%
03:00 +10°C° 0 mm 1 mps 757 mmHg 82%
04:00 +10°C° 0 mm 1 mps 757 mmHg 82%
05:00 +10°C° 0.1 mm 1 mps 757 mmHg 81%
06:00 +11°C° 0.1 mm 1 mps 757 mmHg 80%
07:00 +11°C° 0.1 mm 1 mps 757 mmHg 79%
08:00 +12°C° 0.2 mm 1 mps 757 mmHg 74%
09:00 +13°C° 0.2 mm 2 mps 757 mmHg 68%
10:00 +14°C° 0.2 mm 2 mps 757 mmHg 62%
11:00 +15°C° 0.2 mm 1 mps 756 mmHg 59%
12:00 +16°C° 0.2 mm 1 mps 756 mmHg 55%
13:00 +18°C° 0.2 mm 1 mps 756 mmHg 51%
14:00 +16°C° 0.2 mm 1 mps 755 mmHg 51%
15:00 +16°C° 0.2 mm 1 mps 755 mmHg 51%
16:00 +16°C° 0.2 mm 1 mps 755 mmHg 51%
17:00 +15°C° 0.1 mm 1 mps 755 mmHg 57%
18:00 +14°C° 0.1 mm 1 mps 755 mmHg 64%
19:00 +12°C° 0.1 mm 2 mps 754 mmHg 71%
20:00 +12°C° 0 mm 1 mps 754 mmHg 73%
21:00 +11°C° 0 mm 1 mps 754 mmHg 76%
22:00 +11°C° 0 mm 1 mps 754 mmHg 78%
23:00 +10°C° 0.1 mm 1 mps 754 mmHg 80%

Tomorrow, 21 April, Wednesday

Time Temperature Precipitation Wind Pressure Humidity
00:00 +10°C° 0.1 mm 1 mps 754 mmHg 83%
01:00 +9°C° 0.1 mm 1 mps 754 mmHg 85%
02:00 +9°C° 0 mm 1 mps 754 mmHg 86%
03:00 +9°C° 0 mm 1 mps 754 mmHg 86%
04:00 +8°C° 0 mm 1 mps 754 mmHg 86%
05:00 +9°C° 0 mm 1 mps 754 mmHg 83%
06:00 +10°C° 0 mm 1 mps 754 mmHg 79%
07:00 +11°C° 0 mm 1 mps 754 mmHg 76%
08:00 +12°C° 0 mm 2 mps 754 mmHg 69%
09:00 +13°C° 0 mm 2 mps 754 mmHg 62%
10:00 +15°C° 0 mm 2 mps 753 mmHg 55%
11:00 +16°C° 0 mm 3 mps 753 mmHg 50%
12:00 +16°C° 0 mm 3 mps 753 mmHg 44%
13:00 +17°C° 0 mm 4 mps 753 mmHg 39%
14:00 +17°C° 0 mm 4 mps 753 mmHg 40%
15:00 +17°C° 0 mm 4 mps 752 mmHg 41%
16:00 +17°C° 0 mm 4 mps 752 mmHg 42%
17:00 +14°C° 0 mm 4 mps 752 mmHg 49%
18:00 +12°C° 0 mm 3 mps 752 mmHg 57%
19:00 +10°C° 0 mm 3 mps 752 mmHg 65%
20:00 +10°C° 0.1 mm 4 mps 753 mmHg 71%
21:00 +8°C° 0.1 mm 4 mps 753 mmHg 77%
22:00 +7°C° 0.1 mm 5 mps 753 mmHg 83%
23:00 +6°C° 0.3 mm 5 mps 753 mmHg 82%

Day after tomorrow, 22 April, Thursday

Time Temperature Precipitation Wind Pressure Humidity
00:00 +5°C° 0.3 mm 4 mps 753 mmHg 82%
01:00 +4°C° 0.3 mm 4 mps 753 mmHg 81%
02:00 +3°C° 0 mm 4 mps 754 mmHg 82%
03:00 +1°C° 0 mm 5 mps 754 mmHg 82%
04:00 0°C° 0 mm 5 mps 754 mmHg 83%
05:00 +1°C° 0 mm 6 mps 754 mmHg 82%
06:00 +1°C° 0 mm 6 mps 754 mmHg 80%
07:00 +1°C° 0 mm 6 mps 754 mmHg 78%
08:00 +2°C° 0 mm 7 mps 755 mmHg 74%
09:00 +3°C° 0 mm 7 mps 755 mmHg 70%
10:00 +4°C° 0 mm 7 mps 755 mmHg 66%
11:00 +5°C° 0.2 mm 7 mps 755 mmHg 62%
12:00 +6°C° 0.2 mm 7 mps 755 mmHg 58%
13:00 +8°C° 0.2 mm 7 mps 755 mmHg 54%
14:00 +6°C° 0.3 mm 7 mps 755 mmHg 54%
15:00 +6°C° 0.3 mm 7 mps 755 mmHg 55%
16:00 +6°C° 0.3 mm 7 mps 755 mmHg 56%
17:00 +5°C° 0.1 mm 6 mps 756 mmHg 58%
18:00 +3°C° 0.1 mm 5 mps 756 mmHg 60%
19:00 +3°C° 0.1 mm 4 mps 756 mmHg 63%
20:00 +3°C° 0 mm 4 mps 756 mmHg 65%
21:00 +1°C° 0 mm 4 mps 757 mmHg 67%
22:00 0°C° 0 mm 4 mps 757 mmHg 68%
23:00 0°C° 0 mm 4 mps 757 mmHg 70%

23 April, Friday

Time Temperature Precipitation Wind Pressure Humidity
00:00 0°C° 0 mm 5 mps 757 mmHg 71%
01:00 0°C° 0 mm 5 mps 757 mmHg 72%
02:00 -1°C° 0 mm 5 mps 757 mmHg 73%
03:00 -1°C° 0 mm 5 mps 757 mmHg 74%
04:00 -1°C° 0 mm 5 mps 757 mmHg 75%
05:00 0°C° 0 mm 5 mps 757 mmHg 73%
06:00 +1°C° 0 mm 5 mps 757 mmHg 72%
07:00 +2°C° 0 mm 5 mps 757 mmHg 70%
08:00 +2°C° 0.3 mm 5 mps 757 mmHg 71%
09:00 +3°C° 0.3 mm 5 mps 757 mmHg 72%
10:00 +4°C° 0.3 mm 6 mps 758 mmHg 74%
11:00 +4°C° 1 mm 6 mps 758 mmHg 69%
12:00 +5°C° 1 mm 5 mps 758 mmHg 64%
13:00 +5°C° 1 mm 5 mps 758 mmHg 59%
14:00 +5°C° 0 mm 6 mps 758 mmHg 54%
15:00 +5°C° 0 mm 6 mps 759 mmHg 50%
16:00 +7°C° 0 mm 6 mps 759 mmHg 46%
17:00 +5°C° 0 mm 5 mps 760 mmHg 49%
18:00 +4°C° 0 mm 4 mps 760 mmHg 52%
19:00 +2°C° 0 mm 3 mps 761 mmHg 56%
20:00 +1°C° 0 mm 4 mps 761 mmHg 58%
21:00 0°C° 0 mm 4 mps 761 mmHg 61%
22:00 -1°C° 0 mm 4 mps 761 mmHg 64%
23:00 -1°C° 0 mm 4 mps 761 mmHg 66%

24 April, Saturday

Time Temperature Precipitation Wind Pressure Humidity
00:00 -1°C° 0 mm 4 mps 761 mmHg 67%
01:00 -2°C° 0 mm 4 mps 761 mmHg 68%
02:00 -2°C° 0 mm 4 mps 761 mmHg 68%
03:00 -2°C° 0 mm 4 mps 760 mmHg 67%
04:00 -2°C° 0 mm 4 mps 760 mmHg 67%
05:00 0°C° 0 mm 4 mps 760 mmHg 65%
06:00 +1°C° 0 mm 5 mps 760 mmHg 62%
07:00 +2°C° 0 mm 5 mps 760 mmHg 60%
08:00 +5°C° 0 mm 5 mps 760 mmHg 55%
09:00 +6°C° 0 mm 5 mps 760 mmHg 49%
10:00 +8°C° 0 mm 5 mps 759 mmHg 44%
11:00 +8°C° 0.1 mm 5 mps 759 mmHg 49%
12:00 +8°C° 0.1 mm 6 mps 759 mmHg 54%
13:00 +8°C° 0.1 mm 6 mps 759 mmHg 59%
14:00 +8°C° 0.3 mm 6 mps 759 mmHg 55%
15:00 +8°C° 0.3 mm 6 mps 759 mmHg 52%
16:00 +8°C° 0.3 mm 6 mps 759 mmHg 48%
17:00 +6°C° 0 mm 5 mps 759 mmHg 50%
18:00 +5°C° 0 mm 4 mps 759 mmHg 52%
19:00 +3°C° 0 mm 3 mps 759 mmHg 55%
20:00 +2°C° 0 mm 3 mps 759 mmHg 58%
21:00 +1°C° 0 mm 3 mps 760 mmHg 61%
22:00 +1°C° 0 mm 3 mps 760 mmHg 64%
23:00 0°C° 0 mm 3 mps 759 mmHg 68%

25 April, Sunday

Time Temperature Precipitation Wind Pressure Humidity
00:00 0°C° 0 mm 3 mps 759 mmHg 71%
01:00 -1°C° 0 mm 3 mps 759 mmHg 74%
02:00 -1°C° 0 mm 3 mps 759 mmHg 76%
03:00 -2°C° 0 mm 4 mps 759 mmHg 78%
04:00 -2°C° 0 mm 4 mps 758 mmHg 80%
05:00 -1°C° 0 mm 4 mps 758 mmHg 75%
06:00 +1°C° 0 mm 5 mps 758 mmHg 69%
07:00 +2°C° 0 mm 6 mps 758 mmHg 63%
08:00 +3°C° 0 mm 6 mps 758 mmHg 57%
09:00 +4°C° 0 mm 6 mps 758 mmHg 51%
10:00 +7°C° 0 mm 6 mps 758 mmHg 44%
11:00 +7°C° 0.1 mm 6 mps 758 mmHg 44%
12:00 +7°C° 0.1 mm 6 mps 758 mmHg 45%
13:00 +7°C° 0.1 mm 6 mps 758 mmHg 45%
14:00 +7°C° 0.1 mm 6 mps 758 mmHg 48%
15:00 +5°C° 0.1 mm 6 mps 758 mmHg 52%
16:00 +5°C° 0.1 mm 6 mps 758 mmHg 55%
17:00 +5°C° 0 mm 5 mps 758 mmHg 59%
18:00 +4°C° 0 mm 4 mps 759 mmHg 64%
19:00 +3°C° 0 mm 3 mps 759 mmHg 68%
20:00 +2°C° 0 mm 3 mps 759 mmHg 72%
21:00 +2°C° 0 mm 2 mps 759 mmHg 75%
22:00 +1°C° 0 mm 2 mps 759 mmHg 79%
23:00 +1°C° 0 mm 2 mps 758 mmHg 81%
Show more